Sidney, NE

3:20 PM MST on December 07, 2016 (GMT -0700)
Sidney Municipal

Weather History for KSNY - February, 2014

Change the Weather History Date:

Thursday, February 27, 2014

  Actual Average Record
Temperature  
Mean Temperature 20 °F 35 °F  
Max Temperature 36 °F 48 °F 73 °F (2016)
Min Temperature 4 °F 21 °F -20 °F (1962)
Degree Days  
Heating Degree Days 45 30  
Month to date heating degree days 1208 895  
Since 1 July heating degree days 4949 4552  
Cooling Degree Days 0 0  
Month to date cooling degree days 0 0  
Year to date cooling degree days 0 0  
Moisture  
Dew Point 17 °F    
Average Humidity 74    
Maximum Humidity 85    
Minimum Humidity 62    
Precipitation  
Precipitation T in 0.01 in 0.64 in (1987)
Month to date precipitation 0.22 0.30  
Year to date precipitation 0.44 0.50  
Sea Level Pressure  
Sea Level Pressure 29.82 in    
Wind  
Wind Speed 7 mph (South)    
Max Wind Speed 20 mph    
Max Gust Speed 24 mph    
Visibility 10 miles    
Events      
T = Trace of Precipitation, MM = Missing Value Source: NWS Daily Summary

Daily Weather History Graph

Daily Weather History Graph

Search for Another Location

Airport or City:

Trip Planner

Search our weather history database for the weather conditions in past years. The results will help you decide how hot, cold, wet, or windy it might be!

Date:

Astronomy

Feb. 27, 2014 Rise Set
Actual Time 6:29 AM MST 5:40 PM MST
Civil Twilight 6:01 AM MST 6:08 PM MST
Nautical Twilight 5:29 AM MST 6:40 PM MST
Astronomical Twilight 4:57 AM MST 7:12 PM MST
Moon 5:03 AM MST (2/27) 4:08 PM MST (2/27)
Length of Visible Light 12h 06m
Length of Day
11h 11m
Waning Crescent, 4% of the Moon is Illuminated
Feb 27
Waning Crescent
Mar 1
New
Mar 8
First Quarter
Mar 16
Full
Mar 23
Last Quarter

Hourly Weather History & Observations

Time (MST) Temp. Windchill Dew Point Humidity Pressure Visibility Wind Dir Wind Speed Gust Speed Precip Events Conditions
12:53 AM 7.0 °F -7.5 °F 1.0 °F 77% 30.08 in 10.0 mi WSW 10.4 mph - N/A   Clear
1:53 AM 10.0 °F 0.4 °F 1.9 °F 70% 30.03 in 10.0 mi West 5.8 mph - N/A   Clear
2:53 AM 6.1 °F -5.6 °F -0.0 °F 76% 30.01 in 10.0 mi WSW 6.9 mph - N/A   Clear
3:53 AM 5.0 °F -5.6 °F -0.0 °F 80% 29.99 in 10.0 mi WSW 5.8 mph - N/A   Clear
4:53 AM 17.1 °F 6.6 °F 9.0 °F 71% 29.93 in 10.0 mi South 8.1 mph - N/A   Mostly Cloudy
5:53 AM 21.9 °F 15.7 °F 10.9 °F 63% 29.92 in 10.0 mi East 4.6 mph - N/A   Mostly Cloudy
6:53 AM 21.0 °F 12.4 °F 14.0 °F 74% 29.92 in 10.0 mi South 6.9 mph - N/A   Mostly Cloudy
7:53 AM 23.0 °F 18.4 °F 16.0 °F 74% 29.93 in 10.0 mi SE 3.5 mph - N/A   Overcast
8:53 AM 19.0 °F - 12.9 °F 77% 29.91 in 9.0 mi Calm Calm - N/A   Partly Cloudy
9:53 AM 25.0 °F 19.3 °F 18.0 °F 75% 29.87 in 10.0 mi SSW 4.6 mph - N/A   Clear
10:53 AM 28.0 °F 19.3 °F 21.0 °F 75% 29.84 in 8.0 mi South 9.2 mph - N/A   Clear
11:53 AM 30.0 °F 20.5 °F 23.0 °F 75% 29.81 in 6.0 mi South 11.5 mph - N/A   Haze
12:53 PM 30.0 °F 21.7 °F 23.0 °F 75% 29.80 in 10.0 mi South 9.2 mph - N/A   Clear
1:53 PM 32.0 °F 24.2 °F 25.0 °F 75% 29.75 in 10.0 mi SSE 9.2 mph - N/A   Clear
2:53 PM 30.9 °F 22.2 °F 25.0 °F 79% 29.75 in 10.0 mi ESE 10.4 mph - N/A   Clear
3:53 PM 30.0 °F 22.4 °F 25.0 °F 82% 29.74 in 10.0 mi SE 8.1 mph - N/A   Clear
4:53 PM 28.0 °F 20.0 °F 23.0 °F 81% 29.70 in 10.0 mi SSE 8.1 mph - N/A   Clear
5:53 PM 26.1 °F 18.4 °F 21.9 °F 84% 29.69 in 10.0 mi SSE 6.9 mph - N/A   Scattered Clouds
6:53 PM 27.0 °F 21.6 °F 21.9 °F 81% 29.70 in 10.0 mi East 4.6 mph - N/A   Overcast
7:53 PM 26.1 °F 20.5 °F 21.9 °F 84% 29.68 in 10.0 mi SSE 4.6 mph - N/A   Overcast
8:53 PM 27.0 °F 20.5 °F 23.0 °F 85% 29.68 in 10.0 mi East 5.8 mph - N/A   Mostly Cloudy
9:53 PM 30.9 °F 25.2 °F 24.1 °F 76% 29.64 in 10.0 mi SE 5.8 mph - N/A   Mostly Cloudy
10:53 PM 28.9 °F 25.2 °F 24.1 °F 82% 29.63 in 10.0 mi SW 3.5 mph - 0.00 in   Overcast
11:53 PM 35.1 °F 24.8 °F 27.0 °F 72% 29.60 in 10.0 mi SW 17.3 mph - 0.00 in   Overcast